Flag for U.S.A. Weather past 2 weeks in Colorado Springs, Colorado, U.S.A.

Now
56 °F

Passing clouds.


Feels Like: 52 °F
Forecast: 36 / 69 °F
Wind: 17 mph from South

Location: City Of Colorado Springs Municipal Airport

Current Time: Mar 29, 2015 at 7:47:40 PM

Latest Report: Mar 29, 2015 at 6:54 PM


Visibility: 10 mi

Pressure: 30.14 "Hg

Humidity: 24%

Dew point: 20 °F

Location of Colorado SpringsLocation

Historic Weather in Colorado Springs — Graph

°F

Colorado Springs temperature yesterday

Maximum temperature yesterday: 76 °F (at 4:54 PM)
Minimum temperature yesterday: 42 °F (at 5:54 AM)
Average temperature yesterday: 61 °F

Past Weeks' High & Low Weather Summary

 TemperatureHumidityPressure
High79 °F (Mar 16, 12:54 PM)100% (Mar 17, 10:54 AM)30.43 "Hg (Mar 17, 10:54 AM)
Low24 °F (Mar 26, 4:54 AM)6% (Mar 15, 2:54 PM)29.75 "Hg (Mar 23, 4:54 PM)
Average49 °F45%30.06 "Hg
* Reported Mar 14 5:54 PM — Mar 29 5:54 PM, Colorado Springs, Weather by CustomWeather, © 2015

Note: Actual official high and low records may vary slightly from our data, if they occured in-between our weather recording intervals... More about our weather records

Advertising

Colorado Springs weather history for previous 24 hours

 ConditionsComfort  
Time TempWeatherWind HumidityBarometerVisibility
5:54 PM
Sun, Mar 29
59 °FPassing clouds.20 mph22%30.10 "Hg10 mi
4:54 PM60 °FPassing clouds.21 mph21%30.07 "Hg10 mi
3:54 PM61 °FPassing clouds.16 mph20%30.09 "Hg10 mi
2:54 PM61 °FPassing clouds.12 mph21%30.08 "Hg10 mi
1:54 PM59 °FPassing clouds.10 mph22%30.10 "Hg10 mi
12:54 PM56 °FPassing clouds.6 mph24%30.19 "Hg10 mi
11:54 AM56 °FPassing clouds.8 mph24%30.18 "Hg10 mi
10:54 AM52 °FPassing clouds.12 mph25%30.22 "Hg10 mi
9:54 AM50 °FSunny.22 mph27%30.19 "Hg10 mi
8:54 AM49 °FPassing clouds.14 mph31%30.17 "Hg9 mi
7:54 AM44 °FPassing clouds.14 mph40%30.16 "Hg8 mi
6:54 AM43 °FPassing clouds.18 mph51%30.07 "Hg9 mi
5:54 AM46 °FPassing clouds.15 mph44%29.99 "Hg10 mi
4:54 AM51 °FClear.17 mph41%29.93 "Hg10 mi
3:54 AM51 °FClear.14 mph41%29.92 "Hg10 mi
2:54 AM57 °FPassing clouds.14 mph31%29.88 "Hg10 mi
1:54 AM60 °FPassing clouds.20 mph25%29.85 "Hg10 mi
12:54 AM52 °FPassing clouds.9 mph32%29.89 "Hg10 mi
11:54 PM
Sat, Mar 28
58 °FPassing clouds.9 mph23%29.85 "Hg10 mi
10:54 PM54 °FClear.9 mph27%29.85 "Hg10 mi
9:54 PM64 °FClear.8 mph17%29.82 "Hg10 mi
8:54 PM65 °FClear.21 mph16%29.82 "Hg10 mi
7:54 PM66 °FPassing clouds.12 mph14%29.82 "Hg10 mi
Weather by CustomWeather, © 2015

See weather overviewHow to use our weather pages